[[{"header":{"parameterUnit":"m.s-1","parameterCategory":1,"la1":30.2991,"la2":30.254,"lo1":-89.0895,"lo2":-89.0444,"dy":0.0017,"dx":0.0017,"nx":28,"ny":28,"refTime":"2024-09-27T09:00:00:Z","depth":0,"parameterNumber":2,"parameterNumberName":"U-component_of_WINDS"},"data":[0,0,0,0,0,0,0,0,0,0,0,0,0,0,0,0,0,0,0,0,0,0,0,0,0,0,0,0,0,0,0,0,0,0,0,0,0,0,0,0,0,0,0,0,0,0,0,0,0,0,0,0,0,0,0,0,0,0,4.599,4.5992,0,4.6131,4.6133,4.6134,4.6121,4.6119,4.6117,4.6114,4.6257,4.6263,4.6269,0,0,0,0,0,0,0,0,0,0,0,0,0,4.5709,4.5715,4.599,4.5992,4.5994,4.6131,4.6133,4.6135,4.6121,4.6119,4.6116,4.6114,4.6255,4.6262,4.6269,0,0,0,0,0,0,0,0,0,0,0,0,0,4.5839,4.5716,4.599,4.6004,4.6006,4.613,4.6133,4.6135,4.6122,4.6119,4.6115,4.6112,4.6253,4.6262,4.627,4.6389,0,0,4.6297,4.6301,0,0,0,0,0,0,0,0,4.5831,4.5849,4.6,4.6003,4.6006,4.6105,4.6086,4.622,4.6123,4.6078,4.6114,4.6111,4.6209,4.6221,4.6255,4.6396,4.6402,4.6298,4.6303,4.6307,4.6309,0,0,0,0,0,0,0,4.5823,4.5843,4.6046,4.6002,4.6006,4.6003,4.6017,4.6111,4.616,4.6082,4.6081,4.6098,4.621,4.6246,4.6258,4.6404,4.6297,4.6305,4.6311,4.6314,4.6651,4.6655,0,0,0,0,0,0,4.581,4.5836,4.6041,4.605,4.5909,4.601,4.6027,4.6077,4.6159,4.6168,4.61,4.6097,4.6233,4.6248,4.6263,4.6408,4.6307,4.6315,4.632,4.6648,4.6652,4.6656,0,0,0,0,0,0,4.5804,4.5829,4.6036,4.5943,4.5969,4.6019,4.6075,4.6081,4.6117,4.6173,4.6182,4.6129,4.6231,4.6251,4.6358,4.6413,4.6319,4.6327,4.6643,4.6649,4.6654,4.6699,0,0,0,0,0,0,4.5796,4.5827,4.5872,4.5944,4.5974,4.6129,4.6078,4.6086,4.6132,4.6129,4.6202,4.6211,4.623,4.6345,4.6367,4.6423,4.6334,4.6639,4.6646,4.6652,4.6693,4.6706,4.6717,0,0,0,0,0,4.5786,4.5879,4.5875,4.59,4.6032,4.6132,4.6149,4.617,4.6137,4.6183,4.622,4.6209,4.6404,4.6357,4.6381,4.6441,4.6635,4.6644,4.6652,4.6688,4.6703,4.6716,0,0,0,0,0,0,4.5812,4.5888,4.5885,4.6003,4.6061,4.6129,4.6188,4.6185,4.6253,4.6247,4.6269,4.6286,4.6394,4.6428,4.6374,4.6561,4.6515,4.6529,4.6534,4.6549,4.6561,4.655,4.6341,0,0,0,0,0,4.5831,4.5906,4.5969,4.6068,4.6097,4.6138,4.6182,4.6193,4.6254,4.6278,4.6322,4.6381,4.6456,4.6505,4.6577,4.6699,4.6715,4.6752,4.6764,4.6773,4.6784,4.6852,4.6869,4.6684,4.6684,4.6684,0,0,4.5872,4.5923,4.5969,4.6074,4.612,4.6197,4.6158,4.6241,4.6299,4.6291,4.6395,4.643,4.6497,4.6613,4.6666,4.6645,4.6839,4.6784,4.6791,4.6797,4.6862,4.688,4.6895,4.6689,4.6688,4.6688,0,0,4.5985,4.6032,4.6119,4.6167,4.6238,4.6265,4.6286,4.6355,4.6378,4.6484,4.648,4.6548,4.6676,4.6725,4.6766,4.6901,4.6893,4.6924,4.6984,4.705,4.7065,4.7078,4.7125,4.7142,4.6935,4.6935,4.6935,0,4.6026,4.6143,4.6164,4.6249,4.6295,4.6293,4.6382,4.6427,4.6517,4.6549,4.6525,4.6686,4.6732,4.6859,4.6892,4.6926,4.695,4.6915,4.7061,4.7074,4.7087,4.7132,4.715,4.6938,4.6938,4.6938,4.6937,0,4.619,4.6271,4.6333,4.6421,4.6475,4.6561,4.6596,4.6648,4.6655,4.6685,4.6793,4.6848,4.6931,4.6962,4.6969,4.7091,4.7076,4.7056,4.701,4.7107,4.7151,4.7168,4.6943,4.6942,4.6941,4.694,0,0,4.6321,4.6422,4.6444,4.6485,4.6564,4.6627,4.6714,4.6796,4.684,4.6903,4.6976,4.7086,4.7069,4.7116,4.7129,4.7187,4.729,4.716,4.7162,4.7182,4.7427,4.7441,4.7461,4.7286,4.729,4.7292,4.7422,0,4.6442,4.6595,4.6618,4.6753,4.6828,4.6828,4.6904,4.6961,4.6991,4.7059,4.7093,4.717,4.7142,4.717,4.7228,4.7265,4.7339,4.7256,4.7354,4.7357,4.7336,4.7484,4.7498,4.7618,4.7439,4.7442,4.7444,0,4.6603,4.6671,4.6814,4.6884,4.6917,4.6984,4.7062,4.7127,4.7192,4.721,4.7264,4.7271,4.7361,4.7313,4.7437,4.738,4.7422,4.7447,4.7452,4.7461,4.7405,4.7496,4.7656,4.7674,4.7471,4.7469,4.7467,0,4.6684,4.6812,4.6914,4.6949,4.7033,4.7081,4.7118,4.718,4.7228,4.7297,4.7328,4.7406,4.7449,4.7509,4.7536,4.7499,4.7659,4.7613,4.7677,4.7676,4.7709,4.7707,4.7877,4.7738,4.7738,4.7737,4.7737,0,4.6816,4.6903,4.6952,4.7014,4.7112,4.7139,4.7235,4.7271,4.7326,4.7396,4.7401,4.7466,4.7499,4.757,4.7592,4.7692,4.7711,4.7729,4.7733,4.7728,4.7725,4.7754,4.7746,4.7742,4.7741,4.774,4.7739,0,4.6922,4.6958,4.7069,4.7141,4.7161,4.723,4.7291,4.7352,4.7383,4.7472,4.7494,4.7543,4.7626,4.766,4.7762,4.7777,4.7892,4.7891,4.787,4.7871,4.7933,4.7926,4.8127,4.8155,4.7998,4.7999,4.8,0,4.7003,4.707,4.7149,4.7197,4.7236,4.7312,4.7362,4.7391,4.7443,4.7523,4.7575,4.7658,4.7727,4.786,4.7905,4.7983,4.7983,4.8049,4.7995,4.7988,4.7984,4.7979,4.7986,4.8058,4.8059,4.8061,4.8062,0,4.7143,4.7158,4.723,4.7309,4.7369,4.7432,4.7494,4.7532,4.7571,4.7629,4.7715,4.7768,4.7873,4.7956,4.8038,4.8076,4.8076,4.8079,4.8097,4.8092,4.8077,4.8085,4.7896,4.8073,4.8072,4.8071,4.8071,4.807,4.7239,4.7299,4.7365,4.7445,4.7495,4.7553,4.7614,4.7654,4.7726,4.7814,4.7827,4.7919,4.7983,4.8093,4.8135,4.8207,4.8191,4.8218,4.8225,4.8231,4.8234,4.8066,4.8222,4.8222,4.8222,4.8222,4.8221,0,4.7379,4.7422,4.7495,4.7582,4.7646,4.7641,4.771,4.7763,4.7844,4.7904,4.7972,4.8071,4.8153,4.8204,4.8286,4.8334,4.8336,4.8355,4.8351,4.836,4.8245,4.822,4.8352,4.8352,4.8352,4.8352,4.8352,4.8352,4.7459,4.7561,4.7584,4.7711,4.7753,4.7843,4.7883,4.7937,4.7985,4.8096,4.8164,4.8197,4.8255,4.8341,4.8416,4.8429,4.8458,4.8478,4.849,4.8381,4.8368,4.8355,4.8332,4.8485,4.8485,4.8599,4.86,4.8601]},{"header":{"parameterUnit":"m.s-1","parameterCategory":1,"la1":30.2991,"la2":30.254,"lo1":-89.0895,"lo2":-89.0444,"dy":0.0017,"dx":0.0017,"nx":28,"ny":28,"refTime":"2024-09-27T09:00:00:Z","depth":0,"parameterNumber":3,"parameterNumberName":"V-component_of_WINDS"},"data":[0,0,0,0,0,0,0,0,0,0,0,0,0,0,0,0,0,0,0,0,0,0,0,0,0,0,0,0,0,0,0,0,0,0,0,0,0,0,0,0,0,0,0,0,0,0,0,0,0,0,0,0,0,0,0,0,0,0,-5.4065,-5.4067,0,-5.4274,-5.4277,-5.4279,-5.4233,-5.4229,-5.4225,-5.4222,-5.4437,-5.4446,-5.4455,0,0,0,0,0,0,0,0,0,0,0,0,0,-5.3625,-5.3634,-5.4064,-5.4067,-5.407,-5.4274,-5.4277,-5.428,-5.4234,-5.4229,-5.4224,-5.422,-5.4434,-5.4445,-5.4456,0,0,0,0,0,0,0,0,0,0,0,0,0,-5.3824,-5.3636,-5.4064,-5.4071,-5.4074,-5.4273,-5.4277,-5.4281,-5.4235,-5.4229,-5.4223,-5.4218,-5.443,-5.4444,-5.4458,-5.4663,0,0,-5.4501,-5.4507,0,0,0,0,0,0,0,0,-5.3813,-5.384,-5.4068,-5.4071,-5.4075,-5.4222,-5.4201,-5.4409,-5.4236,-5.4174,-5.4221,-5.4215,-5.437,-5.4389,-5.4441,-5.4673,-5.4682,-5.4502,-5.4511,-5.4517,-5.4521,0,0,0,0,0,0,0,-5.3799,-5.3831,-5.4147,-5.4071,-5.4075,-5.4065,-5.4086,-5.424,-5.4303,-5.4179,-5.4176,-5.4201,-5.4371,-5.4428,-5.4446,-5.4685,-5.4502,-5.4514,-5.4523,-5.4528,-5.5098,-5.5105,0,0,0,0,0,0,-5.3782,-5.382,-5.4141,-5.4154,-5.3926,-5.4077,-5.4102,-5.418,-5.4301,-5.4313,-5.4206,-5.4199,-5.4406,-5.4429,-5.4453,-5.4703,-5.4517,-5.453,-5.4538,-5.5092,-5.51,-5.5107,0,0,0,0,0,0,-5.3773,-5.3811,-5.4132,-5.3986,-5.4026,-5.4091,-5.418,-5.4188,-5.4244,-5.4321,-5.4332,-5.4253,-5.4403,-5.4433,-5.4612,-5.471,-5.4536,-5.4549,-5.5084,-5.5094,-5.5103,-5.5203,0,0,0,0,0,0,-5.376,-5.3808,-5.3886,-5.3988,-5.4034,-5.4287,-5.4186,-5.4196,-5.4269,-5.4261,-5.4368,-5.438,-5.44,-5.4591,-5.4626,-5.4726,-5.456,-5.5075,-5.5088,-5.51,-5.5191,-5.5215,-5.5236,0,0,0,0,0,-5.3745,-5.3906,-5.389,-5.3929,-5.4133,-5.4293,-5.4319,-5.4339,-5.4277,-5.4356,-5.4406,-5.4377,-5.4693,-5.4609,-5.4648,-5.4754,-5.5069,-5.5085,-5.5099,-5.5181,-5.521,-5.5235,0,0,0,0,0,0,-5.3813,-5.3919,-5.3903,-5.4102,-5.4189,-5.4285,-5.4386,-5.4369,-5.4476,-5.4464,-5.4484,-5.4509,-5.4691,-5.474,-5.4645,-5.496,-5.4872,-5.4896,-5.4921,-5.495,-5.4971,-5.4956,-5.4572,0,0,0,0,0,-5.3851,-5.3972,-5.4058,-5.4225,-5.4269,-5.432,-5.439,-5.4398,-5.4489,-5.4526,-5.4588,-5.4678,-5.4798,-5.4876,-5.4991,-5.5198,-5.5222,-5.529,-5.5312,-5.533,-5.535,-5.5466,-5.5498,-5.5156,-5.5156,-5.5156,0,0,-5.3932,-5.4004,-5.4079,-5.424,-5.4308,-5.4434,-5.4351,-5.4487,-5.458,-5.4546,-5.4719,-5.4768,-5.487,-5.5064,-5.5153,-5.5111,-5.545,-5.5349,-5.5363,-5.5374,-5.5484,-5.5517,-5.5545,-5.5167,-5.5165,-5.5163,0,0,-5.4142,-5.4208,-5.4355,-5.4426,-5.453,-5.4563,-5.4599,-5.4698,-5.473,-5.4903,-5.4881,-5.4993,-5.5198,-5.5272,-5.5336,-5.5576,-5.5554,-5.5613,-5.5729,-5.5841,-5.5868,-5.5892,-5.5979,-5.601,-5.5633,-5.5633,-5.5633,0,-5.4228,-5.4415,-5.4433,-5.4572,-5.4644,-5.4619,-5.4769,-5.4837,-5.4973,-5.5024,-5.4975,-5.5234,-5.53,-5.5512,-5.5571,-5.5624,-5.5666,-5.5601,-5.5863,-5.5887,-5.591,-5.5993,-5.6026,-5.564,-5.5639,-5.5638,-5.5637,0,-5.4518,-5.4648,-5.4754,-5.4888,-5.4972,-5.5115,-5.5155,-5.5238,-5.5239,-5.5278,-5.5456,-5.5535,-5.5666,-5.5716,-5.5718,-5.593,-5.5901,-5.5857,-5.577,-5.5949,-5.6027,-5.6059,-5.5649,-5.5647,-5.5645,-5.5643,0,0,-5.4777,-5.4919,-5.4958,-5.5018,-5.5133,-5.5234,-5.5377,-5.5505,-5.5577,-5.5672,-5.5793,-5.5968,-5.593,-5.6003,-5.6013,-5.6111,-5.6299,-5.6056,-5.6059,-5.61,-5.6539,-5.6572,-5.6608,-5.6284,-5.629,-5.6295,-5.6531,0,-5.4999,-5.525,-5.5271,-5.5498,-5.5619,-5.5598,-5.5723,-5.5807,-5.5847,-5.5957,-5.6001,-5.6126,-5.6064,-5.6108,-5.6204,-5.6255,-5.6387,-5.6238,-5.6398,-5.6404,-5.6375,-5.6649,-5.6684,-5.6903,-5.6561,-5.6567,-5.657,0,-5.5291,-5.5396,-5.5635,-5.5734,-5.5785,-5.5897,-5.6017,-5.6121,-5.6217,-5.6239,-5.6322,-5.6319,-5.6467,-5.6374,-5.6579,-5.6477,-5.6544,-5.6579,-5.6588,-5.6604,-5.6499,-5.6675,-5.6973,-5.7006,-5.6619,-5.6615,-5.6611,0,-5.5458,-5.5659,-5.5828,-5.5881,-5.6,-5.6079,-5.6132,-5.6222,-5.6298,-5.6403,-5.6453,-5.6574,-5.664,-5.6734,-5.6765,-5.6693,-5.697,-5.6878,-5.6994,-5.6993,-5.7053,-5.7049,-5.7368,-5.7094,-5.7094,-5.7093,-5.7092,0,-5.5704,-5.5852,-5.5905,-5.601,-5.6175,-5.6197,-5.6361,-5.6409,-5.649,-5.6604,-5.6593,-5.6701,-5.6733,-5.6847,-5.6872,-5.7039,-5.7069,-5.7092,-5.7097,-5.7094,-5.7091,-5.7139,-5.7125,-5.7102,-5.71,-5.7098,-5.7097,0,-5.5919,-5.5961,-5.6144,-5.6242,-5.627,-5.6388,-5.6472,-5.6573,-5.6612,-5.6757,-5.6792,-5.6853,-5.6986,-5.7026,-5.7186,-5.7203,-5.7399,-5.739,-5.7367,-5.7368,-5.7482,-5.7472,-5.7844,-5.7894,-5.7586,-5.7588,-5.7591,0,-5.6075,-5.6188,-5.6298,-5.6374,-5.6431,-5.6553,-5.6631,-5.6658,-5.6739,-5.6858,-5.6945,-5.7077,-5.7184,-5.7399,-5.7457,-5.7581,-5.7575,-5.7697,-5.7593,-5.7587,-5.7579,-5.7573,-5.7585,-5.7717,-5.772,-5.7722,-5.7725,0,-5.6346,-5.6361,-5.6474,-5.6595,-5.6689,-5.6785,-5.6878,-5.694,-5.6981,-5.7074,-5.721,-5.7293,-5.7458,-5.759,-5.7715,-5.777,-5.7756,-5.7757,-5.779,-5.7789,-5.7772,-5.7785,-5.7422,-5.7748,-5.7746,-5.7744,-5.7743,-5.7742,-5.6537,-5.6638,-5.6731,-5.6858,-5.6931,-5.7018,-5.7118,-5.717,-5.7284,-5.742,-5.7429,-5.7577,-5.7671,-5.7838,-5.79,-5.8017,-5.7982,-5.803,-5.8043,-5.8055,-5.8065,-5.7752,-5.804,-5.8039,-5.8039,-5.8038,-5.8038,0,-5.681,-5.6869,-5.6985,-5.7116,-5.7216,-5.7192,-5.7294,-5.738,-5.7511,-5.7599,-5.7705,-5.7863,-5.7991,-5.8061,-5.8189,-5.8269,-5.8266,-5.8302,-5.8297,-5.8311,-5.8088,-5.8047,-5.8303,-5.8303,-5.8303,-5.8303,-5.8303,-5.8303,-5.6964,-5.7133,-5.7159,-5.7365,-5.7423,-5.7569,-5.7629,-5.771,-5.7781,-5.7958,-5.8065,-5.8109,-5.8191,-5.8325,-5.8442,-5.8459,-5.8507,-5.8548,-5.8562,-5.8353,-5.8326,-5.83,-5.8262,-5.8558,-5.8559,-5.8775,-5.8777,-5.8778]}]]